Regional Weather Roundup
Issued by NWS New Orleans/Baton Rouge, LA

Home | Current Version | Previous Version | Text Only | Print | Product List | Glossary On
Versions: 1 2 3 4 5 6 7 8 9 10 11 12 13 14 15 16 17 18 19 20 21 22 23 24 25 26 27 28 29 30 31 32 33 34 35 36 37 38 39 40 41 42 43 44 45 46 47 48 49 50
241
ASUS44 KLIX 261410
RWRLIX
NEW ORLEANS REGIONAL WEATHER ROUNDUP
NATIONAL WEATHER SERVICE NEW ORLEANS LA
800 AM CST WED NOV 26 2014

NOTE: "FAIR" INDICATES FEW OR NO CLOUDS BELOW 12,000 FEET WITH NO
      SIGNIFICANT WEATHER AND/OR OBSTRUCTIONS TO VISIBILITY.
      SKY/WX - SKY CONDITION AND SIGNIFICANT WEATHER.
      TMP - AIR TEMPERATURE.     DP    - DEWPOINT TEMPERATURE.
      RH  - RELATIVE HUMIDITY.   PRES  - PRESSURE.
      HI  - HEAT INDEX.          WCI   - WIND CHILL INDEX.

*  THESE STATIONS ARE NOT NWS OR FAA STATIONS AND ARE NOT UNDER
   NWS QUALITY CONTROL.

LAZ038-040-048-061>063-065>067-069-261500-
SOUTHEAST LOUISIANA

CITY           SKY/WX    TMP DP  RH WIND       PRES   REMARKS
N.O. AUDUBON     N/A     48  39  70 MISG        N/A
N.O. INTL ARPT MOSUNNY   45  39  79 S5        30.28R
N.O. LAKEFRONT SUNNY     48  39  71 S6        30.28R
N.O. DOWNTOWN*   N/A     46  34  61 S5        30.28R
SLIDELL        SUNNY     39  34  82 CALM      30.27R
BATON ROUGE    SUNNY     38  35  89 CALM      30.26R
BOOTHVILLE     SUNNY     51  39  63 VRB3      30.29R
BELLE CHASSE   MOSUNNY   44  39  82 VRB3      30.28R
BOGALUSA*        N/A     36  33  88 CALM      30.28R
NEW ROADS*       N/A     38  37  98 CALM      30.26R
GONZALES*        N/A     39  39 100 CALM      30.28R
HAMMOND*       SUNNY     37  34  87 CALM      30.29R
HOUMA*         NOT AVBL
PORT FOURCHON* SUNNY     50  39  66 CALM      30.32R

$$

MSZ070-080>082-261500-
SOUTHERN MISSISSIPPI

CITY           SKY/WX    TMP DP  RH WIND       PRES   REMARKS
MCCOMB         SUNNY     37  32  82 CALM      30.24R
GULFPORT       SUNNY     39  33  79 NW3       30.27R
BILOXI         SUNNY     44  33  65 VRB1      30.27R
PASCAGOULA     SUNNY     41  33  73 NW3       30.26R
STENNIS ARPT*  SUNNY     37  34  87 CALM      30.29R

$$

COASTAL OBSERVATIONS
LAKE AND NEARSHORE STATIONS

STATION/POSITION TIME  TEMP    WIND        PRES    WAVE
                       AIR SEA DIR/SP/G            HT/PER
                 (UTC) (F)     (DEG/KT/KT) (MB)    (FT/S)
PASCAGOULA       1400   44     330/  3/  5 1024.2
WAVELAND YACHT   1400   42     300/  2/  2 1024.1
GRAND ISLE       1400   53 59   20/  2/  3 1025.8
SOUTHWEST PASS   1400   53                 1025.7
NEW CANAL        1400   46 53  200/  3/  4 1025.5
SHELL BEACH      1400   49 52  180/  3/  3 1025.0

OFFSHORE STATIONS

STATION/POSITION TIME  TEMP    WIND        PRES    WAVE
                       AIR SEA DIR/SP/G            HT/PER
                 (UTC) (F)     (DEG/KT/KT) (MB)    (FT/S)
64 S DAUPHIN ISL 1310   57 70  340/ 14/ 19 1025.0    4/ 6

$$




USA.gov is the U.S. government's official web portal to all federal, state and local government web resources and services.